OPS 4682 DEB, 19511

Orbit data source: Space-Track

OPS 4682 DEB, 19511 is space debris in LEO originally from a launch on Sat, 03 Apr 1965 UTC launched from the Air Force Western Test Range (AFWTR). Debris objects in space refer to the collection of defunct objects orbiting the Earth. Examples of debris include non-operational satellites, rocket bodies, and fragments generated from explosions, collisions, or faulty payload assembly.

Loading next visibility...
Identifier
19511, 1965-027AU
Orbit
LEO
Country
Flag of USUS
Related business
Manufacturer
Unknown
Mission
Spacecraft
Bus & Motor
Unknown
Mass
Unknown
Launch date (UTC)
1965-04-03 (61 years ago)
Launch vehicle
Unknown
Launch site
Air Force Western Test Range (AFWTR)
Object type
Payload
Rocket body
Debris
Shape & HBR
Unknown shape, 0.1 m
Radar Cross Section
Small (<0.1 m²)

Expand to show TLE details & history
Last TLE update: 4 hours ago

TLE from 4 hours ago
0 OPS 4682 DEB
1 19511U 65027AU  25293.66846234  .00000760  00000-0  25768-2 0  9990
2 19511  90.2371 353.3808 0030379 331.9411 153.1107 12.97771465770837
Epoch: 2025-10-20T16:02Z
TLE epoch observation values (Epoch: 2025-10-20T16:02:35.146Z)
Latitude
54.88162°
Longitude
-96.29766°
Altitude
1,300.704 km
Speed
7.201 km/s
True Right ascension
11h 34m 51s
True Declination
54° 43' 52"
Sunlit
Object was in daylight at epoch
Visualization orbit readout
Latitude
Unknown
Longitude
Unknown
Altitude
Unknown
Speed
Unknown
Apparent Right ascension
Unknown
Apparent Declination
Unknown
Sunlit
N/A
Visualization observer readout
Local Sidereal Time
14:52:15
Azimuth
Unknown
Elevation
Unknown
Doppler factor
Unknown
Orbital elements
Apogee altitude
1,291.189 km
Perigee altitude
1,244.733 km
Semi-major axis
7,646.098 km
Eccentricity
0.00304
Inclination
90.2371°
RAAN
353.3808°
Arg. of periapsis
331.9411°
True anomaly
153.26761°
Mean anomaly
153.1107°
Eccentric anomaly
153.18921°
Mean motion
3.24626 °/min
Orbital period
110.9 mins
BSTAR
0.0025768
Loading maneuver chart data...
Computing Atmospheric mass density...
Loading historical data...
Loading historical data...
Loading historical data...
Loading historical data...
Loading historical data...
Loading historical data...
Loading historical data...

Documentation

Showing up to 5 results
|